Weather Roundup
Issued by NWS

Home | Current Version | Previous Version | Graphics & Text | Print | Product List | Glossary Off
Versions: 1 2 3 4 5 6 7 8 9 10 11 12 13 14 15 16 17 18 19 20 21 22 23 24 25 26 27 28 29 30 31 32 33 34 35 36 37 38 39 40 41 42 43 44 45 46 47 48 49 50

000
NZUS93 KARX 232359
HRRWXR

CURRENT HOURLY OBSERVATIONS ACROSS
MUCH OF THE UPPER MISSISSIPPI VALLEY
NATIONAL WEATHER SERVICE LA CROSSE WI
700 PM CDT WED AUG 23 2017


...SOUTHEAST MINNESOTA...


CITY           SKY/WX    TMP DP  RH WIND       PRES   REMARKS
ROCHESTER      CLEAR     69  53  56 N6        30.05F
ROCHESTER/MAYO FAIR      72  47  42 NW8       30.04F
WINONA         CLEAR     70  54  56 CALM      30.03S
AUSTIN         SUNNY     72  50  46 NW5       30.04F
ALBERT LEA     SUNNY     73  54  49 CALM      30.04F
DODGE CENTER   SUNNY     70  52  52 NW3       30.05S
PRESTON        CLEAR     68  52  55 NW6       30.05F
OWATONNA       SUNNY     72  57  60 CALM      30.04F
FARIBAULT      SUNNY     72  55  56 CALM      30.04F
$$

...ELSEWHERE IN MINNESOTA...


CITY           SKY/WX    TMP DP  RH WIND       PRES   REMARKS
MINNEAPOLIS    MOSUNNY   74  49  41 NW9       30.02F
INTNL FALLS    CLOUDY    59  51  75 W3        30.07F
DULUTH         MOCLDY    61  51  70 N3        30.06R
RED WING       CLEAR     72  52  49 CALM      30.02S
REDWOOD FALLS  SUNNY     72  56  57 SE3       30.02F
MANKATO        SUNNY     74  51  44 N3        30.04F
WORTHINGTON    MOSUNNY   71  58  63 S5        30.03F
FAIRMONT       MOSUNNY   71  57  61 SE3       30.04F
$$

...SOUTHWEST WISCONSIN...


CITY           SKY/WX    TMP DP  RH WIND       PRES   REMARKS
LA CROSSE      PTCLDY    74  52  46 N8        30.02S
PRAIRIE DU CHI CLEAR     74  47  38 N8        30.02S
BOSCOBEL       CLEAR     74  51  44 N5        30.02F
LONE ROCK      NOT AVBL
PLATTEVILLE    CLEAR     71  51  48 NW7       30.03F
FORT MC COY    CLEAR     70  50  49 N6        30.04F
MAUSTON-NEW LI CLOUDY    70  51  51 NW7       30.02S
VIROQUA        FAIR      69  54  58 NW6       30.05S
WIS DELLS      PTCLDY    70  47  43 NW5       30.03S
$$

...ELSEWHERE IN WISCONSIN...


CITY           SKY/WX    TMP DP  RH WIND       PRES   REMARKS
MILWAUKEE      PTCLDY    68  56  65 SE12      30.00S
MADISON        PTCLDY    70  53  54 NW5       30.01F
GREEN BAY      PTCLDY    68  56  65 N6        30.00S
EAU CLAIRE     CLEAR     68  49  50 N5        30.03F
BLACK RVR FLS  FAIR      71  46  40 N6        30.03S
MEDFORD        CLEAR     63  48  59 NW8       30.05S
WAUSAU         CLEAR     66  45  46 N9        30.01F
WIS RAPIDS     CLEAR     68  48  48 NW9       30.04S
MARSHFIELD     CLEAR     65  47  52 NW7       30.03F
RICE LAKE      CLEAR     63  51  66 N5        30.06F
$$

...NORTHEAST IOWA...


CITY           SKY/WX    TMP DP  RH WIND       PRES   REMARKS
WATERLOO       CLEAR     73  49  42 W6        30.03F
DUBUQUE        CLEAR     70  53  54 NW5       30.04F
DECORAH        CLEAR     70  52  52 N6        30.03S
MASON CITY     SUNNY     72  54  53 CALM      30.06F
CHARLES CITY   CLEAR     72  52  49 NW5       30.05F
OELWEIN        CLEAR     70  57  64 NW3       30.05S
$$

...ELSEWHERE IN IOWA...


CITY           SKY/WX    TMP DP  RH WIND       PRES   REMARKS
DES MOINES     SUNNY     78  50  37 N3        30.04F
IOWA CITY      CLEAR     76  51  41 W8        30.05F
FORT DODGE     NOT AVBL
MARSHALLTOWN   SUNNY     75  53  46 CALM      30.04F
CEDAR RAPIDS   CLEAR     72  53  51 W6        30.03F
$$

...NORTHERN ILLINOIS...


CITY           SKY/WX    TMP DP  RH WIND       PRES   REMARKS
CHICAGO-OHARE  PTCLDY    72  55  55 E8        30.00S
CHICAGO-MIDWAY MOCLDY    70  56  61 E8        30.01S
MOLINE         PTCLDY    76  50  40 NW6       30.02F
ROCKFORD       PTCLDY    72  52  49 NW7       30.02F
PEORIA         CLEAR     74  52  46 N5        30.03F
$$

NOTE: "FAIR" INDICATES FEW OR NO CLOUDS BELOW 12,000 FEET WITH NO
SIGNIFICANT WEATHER AND/OR OBSTRUCTIONS TO VISIBILITY. WIND
SPEEDS ARE IN MILES-PER-HOUR.




USA.gov is the U.S. government's official web portal to all federal, state and local government web resources and services.